Location: Limoges
(45.8354°N, 1.2645°E)
Time: 20:02:12
(UTC+02:00)

Vanguard 2 Rocket - Pass Details

Date: 27 February 2024
Orbit: 555 x 3307 km, 32.9° (Epoch: 11 April)

Event Time Altitude Azimuth Distance (km) Brightness Sun altitude
Rises 19:12:23 0° 269° (W) 5,337 13.5 -6.8°
Reaches altitude 10° 19:15:45 10° 261° (W) 4,678 12.3 -7.4°
Maximum altitude 19:28:17 38° 200° (SSW) 3,827 10.3 -9.5°
Drops below altitude 10° 19:45:15 10° 142° (SE) 6,250 10.8 -12.5°
Sets 19:50:43 0° 135° (SE) 7,260 11.1 -13.4°
